Weather History for Alpena, MI

Change the Weather History Date:

Wednesday, October 23, 2013

  Actual Average Record
Temperature  
Mean Temperature 36 °F 44 °F  
Max Temperature 44 °F 53 °F 83 °F (1963)
Min Temperature 27 °F 34 °F 18 °F (1969)
Degree Days  
Heating Degree Days 29 21  
Month to date heating degree days 344 403  
Since 1 July heating degree days 728 760  
Cooling Degree Days 0 0  
Month to date cooling degree days 0 0  
Year to date cooling degree days 343 289  
Moisture  
Dew Point 29 °F    
Average Humidity 77    
Maximum Humidity 100    
Minimum Humidity 53    
Precipitation  
Precipitation 0.01 in 0.08 in 1.03 in (1958)
Month to date precipitation 3.04 1.99  
Year to date precipitation 26.70 23.69  
Snow  
Snow T in 0.00 in 0.70 in (1960)
Month to date snowfall T 0.1  
Since 1 July snowfall T 0.1  
Snow Depth 0.00 in    
Sea Level Pressure  
Sea Level Pressure 29.84 in    
Wind  
Wind Speed 6 mph (West)    
Max Wind Speed 24 mph    
Max Gust Speed 31 mph    
Visibility 9 miles    
Events Rain , Snow    
T = Trace of Precipitation, MM = Missing Value Source: NWS Daily Summary

Daily Weather History Graph

Daily Weather History Graph

Search for Another Location

Airport:

Trip Planner

Search our weather history database for the weather conditions in past years. The results will help you decide how hot, cold, wet, or windy it might be!

Date:

Astronomy

Oct. 23, 2013 Rise Set
Actual Time 8:00 AM EDT 6:35 PM EDT
Civil Twilight 7:30 AM EDT 7:05 PM EDT
Nautical Twilight 6:56 AM EDT 7:39 PM EDT
Astronomical Twilight 6:22 AM EDT 8:13 PM EDT
Moon 9:58 PM EDT (10/23) 12:24 PM EDT (10/23)
Length of Visible Light 11h 34m
Length of Day
10h 34m
Waning Gibbous, 79% of the Moon is Illuminated
Oct 23
Waning Gibbous
Oct 26
Last Quarter
Nov 3
New
Nov 10
First Quarter
Nov 17
Full

Hourly Weather History & Observations

Time (EDT) Temp. Windchill Dew Point Humidity Pressure Visibility Wind Dir Wind Speed Gust Speed Precip Events Conditions
12:54 AM 32.0 °F 25.6 °F 28.9 °F 88% 29.86 in 10.0 mi WNW 6.9 mph - N/A   Clear
1:54 AM 32.0 °F 27.5 °F 28.9 °F 88% 29.86 in 10.0 mi WNW 4.6 mph - N/A   Clear
2:54 AM 32.0 °F 27.5 °F 28.9 °F 88% 29.85 in 10.0 mi WNW 4.6 mph - N/A   Clear
3:54 AM 32.0 °F 27.5 °F 28.0 °F 85% 29.85 in 10.0 mi WNW 4.6 mph - N/A   Clear
4:54 AM 32.0 °F 28.7 °F 30.0 °F 92% 29.83 in 10.0 mi WNW 3.5 mph - 0.00 in   Overcast
5:54 AM 28.9 °F 25.2 °F 27.0 °F 92% 29.83 in 10.0 mi WSW 3.5 mph - N/A   Clear
6:54 AM 28.9 °F 25.2 °F 27.0 °F 92% 29.84 in 10.0 mi West 3.5 mph - N/A   Clear
7:54 AM 27.0 °F - 26.1 °F 96% 29.84 in 10.0 mi Calm Calm - N/A   Clear
8:54 AM 30.0 °F 26.5 °F 28.0 °F 92% 29.85 in 10.0 mi WSW 3.5 mph - N/A   Clear
9:54 AM 34.0 °F 28.8 °F 28.9 °F 82% 29.86 in 10.0 mi West 5.8 mph - N/A   Clear
10:54 AM 37.9 °F 33.5 °F 28.9 °F 70% 29.84 in 10.0 mi West 5.8 mph - N/A   Clear
11:54 AM 41.0 °F 35.8 °F 28.0 °F 60% 29.84 in 10.0 mi West 8.1 mph - N/A   Clear
12:54 PM 43.0 °F 38.2 °F 26.1 °F 51% 29.83 in 10.0 mi WNW 8.1 mph - N/A   Mostly Cloudy
1:54 PM 35.1 °F 27.9 °F 30.0 °F 82% 29.83 in 2.0 mi West 9.2 mph 21.9 mph 0.00 in Snow Light Snow
2:09 PM 35.6 °F 30.7 °F 30.2 °F 81% 29.80 in 9.0 mi WSW 5.8 mph - 0.00 in   Overcast
2:54 PM 37.9 °F 30.0 °F 30.0 °F 73% 29.83 in 8.0 mi NW 12.7 mph 31.1 mph 0.00 in Rain Light Rain
3:54 PM 39.9 °F 33.9 °F 28.0 °F 63% 29.82 in 10.0 mi NW 9.2 mph 26.5 mph 0.00 in   Mostly Cloudy
4:54 PM 42.1 °F 39.2 °F 28.0 °F 58% 29.82 in 10.0 mi Variable 4.6 mph - 0.01 in   Partly Cloudy
5:54 PM 37.9 °F 33.5 °F 30.0 °F 73% 29.84 in 10.0 mi Variable 5.8 mph - 0.00 in   Overcast
6:54 PM 34.0 °F 31.0 °F 30.0 °F 85% 29.86 in 10.0 mi West 3.5 mph - N/A   Clear
7:33 PM 35.6 °F 30.7 °F 30.2 °F 81% 29.84 in 8.0 mi West 5.8 mph - 0.00 in Snow Light Snow
7:54 PM 34.0 °F 28.8 °F 30.9 °F 89% 29.86 in 10.0 mi WSW 5.8 mph - 0.00 in   Scattered Clouds
8:54 PM 33.1 °F 26.9 °F 30.9 °F 92% 29.86 in 10.0 mi WSW 6.9 mph - N/A   Clear
9:54 PM 32.0 °F 27.5 °F 30.0 °F 92% 29.86 in 10.0 mi WSW 4.6 mph - N/A   Clear
10:54 PM 32.0 °F 28.7 °F 30.0 °F 92% 29.86 in 10.0 mi West 3.5 mph - N/A   Clear
11:54 PM 33.1 °F 27.7 °F 30.9 °F 92% 29.86 in 10.0 mi WSW 5.8 mph - N/A   Mostly Cloudy